Location: Brisbane
(27.5000°S, 153.0170°E)
Time: 16:57:03
(UTC+10:00)

ISS - Visible Passes

Search period start: 22 July 2017 00:00
Search period end: 01 August 2017 00:00
Orbit: 400 x 408 km, 51.6° (Epoch: 22 July)

Date Brightness Start Highest point End Pass type
(mag) Time Alt. Az. Time Alt. Az. Time Alt. Az.
22 Jul -0.6 17:57:12 10° W 17:59:19 16° NW 18:01:24 10° NNW visible
27 Jul -0.5 05:26:32 10° NNE 05:28:24 14° NE 05:30:16 10° E visible
29 Jul -2.6 05:16:44 10° NNW 05:19:53 44° NE 05:23:05 10° SE visible
30 Jul -1.2 04:27:29 19° NE 04:27:37 19° NE 04:30:03 10° E visible
30 Jul -2.5 06:01:13 10° W 06:03:57 23° SW 06:06:43 10° SSE visible
31 Jul -3.7 05:11:24 51° SW 05:11:28 51° SW 05:14:45 10° SSE visible
